Tracking 29892 objects as of 21-Nov-2024
HD Live streaming from Space Station
objects crossing your sky now

CZ-6A DEB

Track CZ-6A DEB now!
10-day predictions


NORAD ID: 54353
Int'l Code: 2022-151CY
Perigee: 631.8 km
Apogee: 832.1 km
Inclination: 99.1 °
Period: 99.3 minutes
Semi major axis: 7102 km
RCS: Unknown
Launch date: November 11, 2022
Source: People's Republic of China (PRC)
Launch site: Taiyaun Space Center, China (TSC)

Note: This is SATELLITE DEBRIS
Your satellite tracking list
Your tracking list is empty




NASA's NSSDC Master Catalog

Two Line Element Set (TLE):
1 54353U 22151CY  24326.14766665  .00014275  00000-0  32335-2 0  9996
2 54353  99.0860  30.3493 0140987 303.5697  55.2099 14.50252222105964
Source of the keplerian elements: AFSPC